| time (UTC) | temp C | wind direction | speed KPH | gust KPH | rain 1hr cm | rain 24hr cm | rain mn cm | humidity % | barometer mb |
| 20260507132901 | 13 | 0 | 6.4 | 9.7 | 0.00 | 0.00 | 0.00 | 73 | 1016.4 |
| 20260507132404 | 13 | 0 | 6.4 | 9.7 | 0.00 | 0.00 | 0.00 | 72 | 1016.4 |
| 20260507131902 | 13 | 0 | 6.4 | 9.7 | 0.00 | 0.00 | 0.00 | 73 | 1016.4 |
| 20260507130402 | 13 | 0 | 6.4 | 11.3 | 0.00 | 0.00 | 0.00 | 74 | 1016.4 |
| 20260507125902 | 13 | 0 | 6.4 | 11.3 | 0.00 | 0.00 | 0.00 | 73 | 1016.5 |
| 20260507125402 | 13 | 0 | 8.0 | 9.7 | 0.00 | 0.00 | 0.00 | 73 | 1016.4 |
| 20260507124903 | 13 | 0 | 6.4 | 11.3 | 0.00 | 0.00 | 0.00 | 73 | 1016.5 |
| 20260507123902 | 13 | 0 | 6.4 | 16.1 | 0.00 | 0.00 | 0.00 | 72 | 1016.5 |
| 20260507123403 | 13 | 0 | 6.4 | 16.1 | 0.00 | 0.00 | 0.00 | 71 | 1016.4 |
| 20260507122902 | 13 | 0 | 9.7 | 16.1 | 0.00 | 0.00 | 0.00 | 69 | 1016.3 |
| 20260507122402 | 13 | 0 | 6.4 | 9.7 | 0.00 | 0.00 | 0.00 | 67 | 1016.3 |
| 20260507121902 | 13 | 0 | 8.0 | 9.7 | 0.00 | 0.00 | 0.00 | 66 | 1016.3 |
| 20260507121402 | 13 | 0 | 6.4 | 9.7 | 0.00 | 0.00 | 0.00 | 66 | 1016.3 |
| 20260507120902 | 13 | 0 | 6.4 | 9.7 | 0.00 | 0.00 | 0.00 | 66 | 1016.3 |
| 20260507120402 | 13 | 0 | 6.4 | 8.0 | 0.00 | 0.00 | 0.00 | 67 | 1016.3 |
| 20260507115903 | 14 | 0 | 6.4 | 8.0 | 0.00 | 0.00 | 0.00 | 67 | 1016.3 |
| 20260507115402 | 15 | 0 | 6.4 | 6.4 | 0.00 | 0.00 | 0.00 | 68 | 1016.3 |
| 20260507114402 | 15 | 0 | 3.2 | 11.3 | 0.00 | 0.00 | 0.00 | 70 | 1016.2 |
| 20260507113902 | 15 | 0 | 3.2 | 11.3 | 0.00 | 0.00 | 0.00 | 69 | 1016.1 |
| 20260507112903 | 15 | 0 | 1.6 | 6.4 | 0.00 | 0.00 | 0.00 | 67 | 1016.2 |
| 20260507112403 | 14 | 0 | 3.2 | 8.0 | 0.00 | 0.00 | 0.00 | 66 | 1016.3 |
| 20260507111904 | 14 | 0 | 3.2 | 8.0 | 0.00 | 0.00 | 0.00 | 70 | 1016.2 |
| 20260507110905 | 15 | 0 | 3.2 | 6.4 | 0.00 | 0.00 | 0.00 | 65 | 1016.4 |
| 20260507110402 | 15 | 0 | 3.2 | 9.7 | 0.00 | 0.00 | 0.00 | 63 | 1016.4 |
| 20260507105902 | 15 | 0 | 3.2 | 9.7 | 0.00 | 0.00 | 0.00 | 65 | 1016.4 |
| 20260507105402 | 15 | 0 | 4.8 | 9.7 | 0.00 | 0.00 | 0.00 | 65 | 1016.4 |
| 20260507104903 | 15 | 0 | 4.8 | 9.7 | 0.00 | 0.00 | 0.00 | 67 | 1016.5 |
| 20260507104402 | 15 | 0 | 6.4 | 8.0 | 0.00 | 0.00 | 0.00 | 64 | 1016.5 |
| 20260507103903 | 15 | 0 | 3.2 | 11.3 | 0.00 | 0.00 | 0.00 | 64 | 1016.5 |
| 20260507103403 | 15 | 0 | 3.2 | 11.3 | 0.00 | 0.00 | 0.00 | 66 | 1016.5 |
| 20260507102902 | 15 | 0 | 4.8 | 11.3 | 0.00 | 0.00 | 0.00 | 64 | 1016.5 |
| 20260507102404 | 15 | 0 | 6.4 | 11.3 | 0.00 | 0.00 | 0.00 | 64 | 1016.5 |
| 20260507101904 | 16 | 0 | 4.8 | 11.3 | 0.00 | 0.00 | 0.00 | 62 | 1016.5 |
| 20260507101402 | 17 | 0 | 3.2 | 8.0 | 0.00 | 0.00 | 0.00 | 69 | 1016.5 |
| 20260507100903 | 16 | 0 | 4.8 | 11.3 | 0.00 | 0.00 | 0.00 | 68 | 1016.4 |
| 20260507100404 | 15 | 0 | 3.2 | 11.3 | 0.00 | 0.00 | 0.00 | 72 | 1016.5 |
| 20260507095902 | 15 | 0 | 4.8 | 11.3 | 0.00 | 0.00 | 0.00 | 69 | 1016.5 |
| 20260507095402 | 15 | 0 | 9.7 | 11.3 | 0.00 | 0.00 | 0.00 | 68 | 1016.5 |
| 20260507094403 | 14 | 0 | 6.4 | 11.3 | 0.00 | 0.00 | 0.00 | 72 | 1016.3 |
| 20260507093903 | 14 | 0 | 8.0 | 11.3 | 0.00 | 0.00 | 0.00 | 74 | 1016.4 |
| 20260507093405 | 14 | 0 | 4.8 | 11.3 | 0.00 | 0.00 | 0.00 | 73 | 1016.4 |
| 20260507092902 | 14 | 0 | 6.4 | 11.3 | 0.00 | 0.00 | 0.00 | 74 | 1016.3 |
| 20260507092404 | 14 | 0 | 6.4 | 9.7 | 0.00 | 0.00 | 0.00 | 75 | 1016.3 |
| 20260507091902 | 13 | 0 | 6.4 | 9.7 | 0.00 | 0.00 | 0.00 | 77 | 1016.2 |
| 20260507091402 | 13 | 0 | 4.8 | 8.0 | 0.00 | 0.00 | 0.00 | 77 | 1016.2 |
| 20260507090903 | 13 | 0 | 4.8 | 8.0 | 0.00 | 0.00 | 0.00 | 77 | 1016.2 |
| 20260507090405 | 13 | 0 | 3.2 | 8.0 | 0.00 | 0.00 | 0.00 | 78 | 1016.1 |
| 20260507085903 | 13 | 0 | 4.8 | 9.7 | 0.00 | 0.00 | 0.00 | 79 | 1016.2 |
| 20260507085402 | 12 | 0 | 6.4 | 9.7 | 0.00 | 0.00 | 0.00 | 80 | 1016.1 |
| 20260507084902 | 12 | 0 | 6.4 | 9.7 | 0.00 | 0.00 | 0.00 | 80 | 1016.1 |
| 20260507084402 | 12 | 0 | 6.4 | 9.7 | 0.00 | 0.00 | 0.00 | 81 | 1016.1 |
| 20260507083903 | 12 | 0 | 6.4 | 9.7 | 0.00 | 0.00 | 0.00 | 82 | 1016.0 |
| 20260507083404 | 12 | 0 | 6.4 | 9.7 | 0.00 | 0.00 | 0.00 | 83 | 1016.1 |
| 20260507082402 | 11 | 0 | 6.4 | 11.3 | 0.00 | 0.00 | 0.00 | 84 | 1016.1 |
| 20260507081903 | 11 | 0 | 8.0 | 11.3 | 0.00 | 0.00 | 0.00 | 85 | 1016.0 |
| 20260507081402 | 11 | 0 | 4.8 | 9.7 | 0.00 | 0.00 | 0.00 | 86 | 1016.0 |
| 20260507080402 | 11 | 0 | 4.8 | 11.3 | 0.00 | 0.00 | 0.00 | 86 | 1016.0 |
| 20260507075901 | 11 | 0 | 8.0 | 11.3 | 0.00 | 0.00 | 0.00 | 86 | 1015.9 |
| 20260507075401 | 11 | 0 | 8.0 | 16.1 | 0.00 | 0.00 | 0.00 | 87 | 1015.9 |
| 20260507074902 | 10 | 0 | 8.0 | 16.1 | 0.00 | 0.00 | 0.00 | 87 | 1015.9 |
| 20260507074403 | 10 | 0 | 8.0 | 11.3 | 0.00 | 0.00 | 0.00 | 88 | 1015.9 |
| 20260507073903 | 10 | 0 | 6.4 | 11.3 | 0.00 | 0.00 | 0.00 | 88 | 1015.9 |
| 20260507073403 | 10 | 0 | 8.0 | 11.3 | 0.00 | 0.00 | 0.00 | 89 | 1015.7 |
| 20260507072901 | 10 | 0 | 8.0 | 11.3 | 0.00 | 0.00 | 0.00 | 89 | 1015.8 |
| 20260507072401 | 10 | 0 | 6.4 | 16.1 | 0.00 | 0.00 | 0.00 | 90 | 1015.8 |
| 20260507071905 | 10 | 0 | 6.4 | 16.1 | 0.00 | 0.00 | 0.00 | 90 | 1015.6 |
| 20260507071400 | 10 | 0 | 8.0 | 14.5 | 0.00 | 0.00 | 0.00 | 91 | 1015.6 |
| 20260507070901 | 10 | 0 | 8.0 | 11.3 | 0.00 | 0.00 | 0.00 | 91 | 1015.6 |
| 20260507070400 | 10 | 0 | 4.8 | 11.3 | 0.00 | 0.00 | 0.00 | 92 | 1015.6 |
| 20260507065905 | 10 | 0 | 8.0 | 11.3 | 0.00 | 0.00 | 0.00 | 92 | 1015.6 |
| 20260507065400 | 9 | 0 | 8.0 | 9.7 | 0.00 | 0.00 | 0.00 | 93 | 1015.6 |
| 20260507064902 | 9 | 0 | 6.4 | 9.7 | 0.00 | 0.00 | 0.00 | 93 | 1015.6 |
| 20260507064400 | 9 | 0 | 6.4 | 9.7 | 0.00 | 0.00 | 0.00 | 94 | 1015.6 |
| 20260507063859 | 9 | 0 | 6.4 | 9.7 | 0.00 | 0.00 | 0.00 | 94 | 1015.5 |
| 20260507063401 | 9 | 0 | 4.8 | 9.7 | 0.00 | 0.00 | 0.00 | 94 | 1015.6 |
| 20260507062900 | 9 | 0 | 3.2 | 8.0 | 0.00 | 0.00 | 0.00 | 94 | 1015.5 |
| 20260507061859 | 8 | 0 | 3.2 | 6.4 | 0.00 | 0.00 | 0.00 | 94 | 1015.5 |
| 20260507061359 | 8 | 0 | 4.8 | 8.0 | 0.00 | 0.00 | 0.00 | 94 | 1015.4 |
| 20260507060900 | 8 | 0 | 4.8 | 8.0 | 0.00 | 0.00 | 0.00 | 95 | 1015.4 |
| 20260507060359 | 8 | 0 | 3.2 | 6.4 | 0.00 | 0.00 | 0.00 | 95 | 1015.3 |
| 20260507055859 | 8 | 13 | 4.8 | 6.4 | 0.00 | 0.00 | 0.00 | 95 | 1015.3 |
| 20260507054858 | 8 | 0 | 3.2 | 6.4 | 0.00 | 0.00 | 0.00 | 95 | 1015.3 |
| 20260507054400 | 8 | 0 | 3.2 | 6.4 | 0.00 | 0.00 | 0.00 | 95 | 1015.1 |
| 20260507053858 | 8 | 0 | 1.6 | 6.4 | 0.00 | 0.00 | 0.00 | 95 | 1015.1 |
| 20260507053401 | 8 | 0 | 3.2 | 6.4 | 0.00 | 0.00 | 0.00 | 95 | 1015.1 |
| 20260507052858 | 8 | 0 | 3.2 | 4.8 | 0.00 | 0.00 | 0.00 | 95 | 1015.1 |
| 20260507052359 | 8 | 0 | 1.6 | 4.8 | 0.00 | 0.00 | 0.00 | 95 | 1014.9 |
| 20260507051858 | 8 | 0 | 1.6 | 3.2 | 0.00 | 0.00 | 0.00 | 95 | 1015.0 |
| 20260507051415 | 8 | 0 | 0.0 | 4.8 | 0.00 | 0.00 | 0.00 | 95 | 1014.9 |
| 20260507050858 | 8 | 0 | 1.6 | 4.8 | 0.00 | 0.00 | 0.00 | 95 | 1014.9 |
| 20260507050357 | 8 | 0 | 1.6 | 3.2 | 0.00 | 0.00 | 0.00 | 95 | 1014.8 |
| 20260507045857 | 8 | 0 | 1.6 | 3.2 | 0.00 | 0.00 | 0.00 | 95 | 1014.7 |
| 20260507045357 | 8 | 0 | 3.2 | 4.8 | 0.00 | 0.00 | 0.00 | 95 | 1014.8 |
| 20260507044857 | 8 | 0 | 1.6 | 4.8 | 0.00 | 0.00 | 0.00 | 95 | 1014.7 |
| 20260507043357 | 8 | 0 | 4.8 | 9.7 | 0.00 | 0.00 | 0.00 | 95 | 1014.5 |
| 20260507042857 | 8 | 0 | 3.2 | 9.7 | 0.00 | 0.00 | 0.00 | 95 | 1014.5 |
| 20260507041857 | 7 | 0 | 3.2 | 3.2 | 0.00 | 0.00 | 0.00 | 95 | 1014.5 |
| 20260507041357 | 7 | 0 | 0.0 | 0.0 | 0.00 | 0.00 | 0.00 | 95 | 1014.4 |
| 20260507040856 | 7 | 0 | 0.0 | 0.0 | 0.00 | 0.00 | 0.00 | 94 | 1014.3 |
| 20260507040356 | 7 | 0 | 0.0 | 0.0 | 0.00 | 0.00 | 0.00 | 94 | 1014.3 |
| 20260507035856 | 7 | 0 | 0.0 | 0.0 | 0.00 | 0.00 | 0.00 | 95 | 1014.2 |
| 20260507035356 | 7 | 0 | 0.0 | 0.0 | 0.00 | 0.00 | 0.00 | 95 | 1014.2 |
| 20260507034856 | 7 | 0 | 0.0 | 0.0 | 0.00 | 0.00 | 0.00 | 94 | 1014.1 |
| 20260507034358 | 7 | 0 | 0.0 | 0.0 | 0.00 | 0.00 | 0.00 | 94 | 1014.0 |
| 20260507033357 | 7 | 0 | 0.0 | 0.0 | 0.00 | 0.00 | 0.00 | 94 | 1014.0 |
| 20260507032856 | 7 | 0 | 0.0 | 4.8 | 0.00 | 0.00 | 0.00 | 94 | 1014.0 |
| 20260507032356 | 7 | 0 | 1.6 | 4.8 | 0.00 | 0.00 | 0.00 | 94 | 1014.0 |
| 20260507031355 | 7 | 0 | 3.2 | 3.2 | 0.00 | 0.00 | 0.00 | 94 | 1014.0 |
| 20260507030857 | 7 | 0 | 1.6 | 3.2 | 0.00 | 0.00 | 0.00 | 94 | 1014.0 |
| 20260507030355 | 7 | 0 | 0.0 | 0.0 | 0.00 | 0.00 | 0.00 | 94 | 1014.0 |
| 20260507025855 | 7 | 0 | 0.0 | 1.6 | 0.00 | 0.00 | 0.00 | 94 | 1013.9 |
| 20260507025356 | 6 | 0 | 0.0 | 1.6 | 0.00 | 0.00 | 0.00 | 94 | 1014.0 |
| 20260507024854 | 6 | 0 | 0.0 | 1.6 | 0.00 | 0.00 | 0.00 | 94 | 1013.9 |
| 20260507024355 | 6 | 0 | 1.6 | 1.6 | 0.00 | 0.00 | 0.00 | 94 | 1013.9 |
| 20260507023854 | 6 | 0 | 1.6 | 3.2 | 0.00 | 0.00 | 0.00 | 94 | 1013.9 |
| 20260507023354 | 6 | 0 | 1.6 | 3.2 | 0.00 | 0.00 | 0.00 | 94 | 1013.9 |
| 20260507022854 | 6 | 0 | 1.6 | 3.2 | 0.00 | 0.00 | 0.00 | 93 | 1013.8 |
| 20260507022355 | 6 | 0 | 1.6 | 3.2 | 0.00 | 0.00 | 0.00 | 94 | 1013.9 |
| 20260507021354 | 6 | 0 | 1.6 | 3.2 | 0.00 | 0.00 | 0.00 | 94 | 1013.9 |
| 20260507020854 | 6 | 0 | 3.2 | 3.2 | 0.00 | 0.00 | 0.00 | 93 | 1013.8 |
| 20260507020353 | 6 | 0 | 1.6 | 3.2 | 0.00 | 0.00 | 0.00 | 93 | 1013.8 |
| 20260507015853 | 6 | 0 | 3.2 | 3.2 | 0.00 | 0.00 | 0.00 | 93 | 1013.8 |
| 20260507015354 | 5 | 0 | 1.6 | 3.2 | 0.00 | 0.00 | 0.00 | 93 | 1013.7 |
| 20260507014853 | 6 | 0 | 3.2 | 3.2 | 0.00 | 0.00 | 0.00 | 93 | 1013.7 |
| 20260507014353 | 6 | 0 | 3.2 | 3.2 | 0.00 | 0.00 | 0.00 | 93 | 1013.7 |
| 20260507013853 | 6 | 0 | 3.2 | 3.2 | 0.00 | 0.00 | 0.00 | 93 | 1013.7 |
| 20260507012852 | 6 | 0 | 3.2 | 3.2 | 0.00 | 0.00 | 0.00 | 93 | 1013.7 |
| 20260507012354 | 6 | 0 | 1.6 | 3.2 | 0.00 | 0.00 | 0.00 | 93 | 1013.7 |
| 20260507011352 | 6 | 0 | 1.6 | 3.2 | 0.00 | 0.00 | 0.00 | 93 | 1013.6 |
| 20260507010853 | 6 | 0 | 1.6 | 3.2 | 0.00 | 0.00 | 0.00 | 92 | 1013.6 |
| 20260507010352 | 6 | 0 | 1.6 | 3.2 | 0.00 | 0.00 | 0.00 | 92 | 1013.6 |
| 20260507005853 | 6 | 0 | 1.6 | 3.2 | 0.00 | 0.00 | 0.00 | 92 | 1013.6 |
| 20260507005352 | 6 | 0 | 0.0 | 3.2 | 0.00 | 0.00 | 0.00 | 92 | 1013.6 |
| 20260507004852 | 6 | 0 | 1.6 | 3.2 | 0.00 | 0.00 | 0.00 | 92 | 1013.6 |
| 20260507004353 | 6 | 0 | 1.6 | 3.2 | 0.00 | 0.00 | 0.00 | 92 | 1013.6 |
| 20260507003853 | 6 | 0 | 1.6 | 3.2 | 0.00 | 0.00 | 0.00 | 92 | 1013.6 |
| 20260507003352 | 6 | 0 | 1.6 | 3.2 | 0.00 | 0.00 | 0.00 | 91 | 1013.6 |
| 20260507002851 | 6 | 0 | 1.6 | 3.2 | 0.00 | 0.00 | 0.00 | 91 | 1013.7 |
| 20260507002351 | 6 | 0 | 1.6 | 3.2 | 0.00 | 0.00 | 0.00 | 91 | 1013.6 |
| 20260507001851 | 6 | 0 | 1.6 | 3.2 | 0.00 | 0.00 | 0.00 | 91 | 1013.6 |
| 20260507000853 | 7 | 0 | 1.6 | 3.2 | 0.00 | 0.00 | 0.00 | 91 | 1013.6 |
| 20260507000351 | 7 | 0 | 3.2 | 3.2 | 0.00 | 0.00 | 0.00 | 90 | 1013.6 |
| 20260506235853 | 7 | 0 | 3.2 | 4.8 | 0.00 | 0.00 | 0.00 | 90 | 1013.6 |
| 20260506235353 | 7 | 0 | 3.2 | 4.8 | 0.00 | 0.00 | 0.00 | 90 | 1013.7 |
| 20260506234350 | 7 | 0 | 1.6 | 3.2 | 0.00 | 0.00 | 0.00 | 89 | 1013.6 |
| 20260506233850 | 8 | 0 | 3.2 | 3.2 | 0.00 | 0.00 | 0.00 | 89 | 1013.5 |
| 20260506233351 | 8 | 0 | 0.0 | 1.6 | 0.00 | 0.00 | 0.00 | 89 | 1013.4 |
| 20260506232853 | 8 | 0 | 0.0 | 0.0 | 0.00 | 0.00 | 0.00 | 89 | 1013.4 |
| 20260506232350 | 8 | 0 | 0.0 | 6.4 | 0.00 | 0.00 | 0.00 | 89 | 1013.4 |
| 20260506231848 | 9 | 0 | 1.6 | 6.4 | 0.00 | 0.00 | 0.00 | 89 | 1013.3 |
| 20260506230846 | 9 | 0 | 4.8 | 6.4 | 0.00 | 0.00 | 0.00 | 89 | 1013.4 |
| 20260506230344 | 9 | 0 | 4.8 | 6.4 | 0.00 | 0.00 | 0.00 | 89 | 1013.3 |
| 20260506225342 | 9 | 0 | 3.2 | 8.0 | 0.00 | 0.00 | 0.00 | 89 | 1013.2 |
| 20260506224842 | 9 | 0 | 3.2 | 8.0 | 0.00 | 0.00 | 0.00 | 89 | 1013.2 |
| 20260506223842 | 10 | 0 | 3.2 | 8.0 | 0.00 | 0.00 | 0.00 | 89 | 1013.3 |
| 20260506223343 | 10 | 0 | 4.8 | 8.0 | 0.00 | 0.00 | 0.00 | 88 | 1013.2 |
| 20260506222842 | 10 | 0 | 4.8 | 11.3 | 0.00 | 0.00 | 0.00 | 88 | 1013.1 |
| 20260506222343 | 10 | 0 | 6.4 | 11.3 | 0.00 | 0.00 | 0.00 | 88 | 1013.1 |
| 20260506221843 | 10 | 0 | 3.2 | 8.0 | 0.00 | 0.00 | 0.00 | 88 | 1013.1 |
| 20260506221342 | 10 | 0 | 4.8 | 8.0 | 0.00 | 0.00 | 0.00 | 88 | 1013.2 |
| 20260506220843 | 10 | 0 | 4.8 | 8.0 | 0.00 | 0.00 | 0.00 | 88 | 1013.2 |
| 20260506215842 | 10 | 0 | 3.2 | 8.0 | 0.00 | 0.00 | 0.00 | 88 | 1013.2 |
| 20260506215342 | 10 | 0 | 4.8 | 9.7 | 0.00 | 0.00 | 0.00 | 88 | 1013.2 |
| 20260506214842 | 10 | 0 | 6.4 | 9.7 | 0.00 | 0.00 | 0.00 | 88 | 1013.1 |
| 20260506214345 | 10 | 0 | 4.8 | 11.3 | 0.00 | 0.00 | 0.00 | 88 | 1013.1 |
| 20260506213844 | 10 | 0 | 4.8 | 11.3 | 0.00 | 0.00 | 0.00 | 88 | 1013.1 |
| 20260506213342 | 10 | 0 | 3.2 | 9.7 | 0.00 | 0.00 | 0.00 | 87 | 1013.1 |
| 20260506212843 | 10 | 0 | 6.4 | 9.7 | 0.00 | 0.00 | 0.00 | 87 | 1012.9 |
| 20260506212342 | 10 | 0 | 4.8 | 11.3 | 0.00 | 0.00 | 0.00 | 87 | 1013.0 |
| 20260506211842 | 10 | 0 | 4.8 | 11.3 | 0.00 | 0.00 | 0.00 | 87 | 1013.0 |
| 20260506211342 | 10 | 0 | 4.8 | 9.7 | 0.00 | 0.00 | 0.00 | 87 | 1012.9 |
| 20260506210842 | 10 | 0 | 6.4 | 16.1 | 0.00 | 0.00 | 0.00 | 87 | 1012.9 |
| 20260506210341 | 10 | 0 | 6.4 | 16.1 | 0.00 | 0.00 | 0.00 | 87 | 1012.9 |
| 20260506205839 | 10 | 0 | 6.4 | 14.5 | 0.00 | 0.00 | 0.00 | 87 | 1012.9 |
| 20260506205340 | 10 | 0 | 6.4 | 14.5 | 0.00 | 0.00 | 0.00 | 87 | 1012.8 |
| 20260506204839 | 10 | 0 | 6.4 | 11.3 | 0.00 | 0.00 | 0.00 | 87 | 1012.9 |
| 20260506204341 | 10 | 0 | 6.4 | 14.5 | 0.00 | 0.00 | 0.00 | 87 | 1012.9 |
| 20260506203839 | 10 | 0 | 8.0 | 14.5 | 0.00 | 0.00 | 0.00 | 87 | 1012.7 |
| 20260506203337 | 10 | 0 | 6.4 | 11.3 | 0.00 | 0.00 | 0.00 | 87 | 1012.7 |
| 20260506202837 | 10 | 0 | 6.4 | 11.3 | 0.00 | 0.00 | 0.00 | 87 | 1012.7 |
| 20260506201835 | 10 | 0 | 8.0 | 17.7 | 0.00 | 0.00 | 0.00 | 86 | 1012.7 |
| 20260506201331 | 10 | 0 | 6.4 | 17.7 | 0.00 | 0.00 | 0.00 | 86 | 1012.6 |
| 20260506200833 | 10 | 0 | 6.4 | 14.5 | 0.00 | 0.00 | 0.00 | 86 | 1012.6 |
| 20260506200331 | 10 | 0 | 8.0 | 16.1 | 0.00 | 0.00 | 0.00 | 85 | 1012.5 |
| 20260506195831 | 10 | 0 | 8.0 | 16.1 | 0.00 | 0.00 | 0.00 | 85 | 1012.5 |
| 20260506195335 | 10 | 0 | 8.0 | 17.7 | 0.00 | 0.00 | 0.00 | 85 | 1012.4 |
| 20260506194831 | 10 | 0 | 9.7 | 17.7 | 0.00 | 0.00 | 0.00 | 85 | 1012.5 |
| 20260506194331 | 10 | 0 | 6.4 | 17.7 | 0.00 | 0.00 | 0.00 | 85 | 1012.5 |
| 20260506193833 | 11 | 0 | 11.3 | 17.7 | 0.00 | 0.00 | 0.00 | 85 | 1012.4 |
| 20260506193331 | 11 | 0 | 6.4 | 14.5 | 0.00 | 0.00 | 0.00 | 84 | 1012.3 |
| 20260506192831 | 11 | 0 | 8.0 | 17.7 | 0.00 | 0.00 | 0.00 | 84 | 1012.4 |
| 20260506191831 | 11 | 0 | 9.7 | 19.3 | 0.00 | 0.00 | 0.00 | 83 | 1012.2 |
| 20260506191332 | 11 | 0 | 9.7 | 19.3 | 0.00 | 0.00 | 0.00 | 83 | 1012.2 |
| 20260506190833 | 11 | 0 | 9.7 | 17.7 | 0.00 | 0.00 | 0.00 | 83 | 1012.1 |
| 20260506190333 | 11 | 0 | 6.4 | 19.3 | 0.00 | 0.00 | 0.00 | 82 | 1012.1 |
| 20260506185832 | 11 | 0 | 11.3 | 20.9 | 0.00 | 0.00 | 0.00 | 82 | 1012.0 |
| 20260506185331 | 11 | 0 | 14.5 | 20.9 | 0.00 | 0.00 | 0.00 | 82 | 1012.1 |
| 20260506184830 | 11 | 0 | 9.7 | 20.9 | 0.00 | 0.00 | 0.00 | 81 | 1012.0 |
| 20260506184331 | 11 | 0 | 9.7 | 20.9 | 0.00 | 0.00 | 0.00 | 81 | 1012.0 |
| 20260506183830 | 12 | 0 | 11.3 | 22.5 | 0.00 | 0.00 | 0.00 | 80 | 1012.0 |
| 20260506183332 | 12 | 0 | 11.3 | 25.7 | 0.00 | 0.00 | 0.00 | 79 | 1012.0 |
| 20260506182831 | 12 | 0 | 17.7 | 25.7 | 0.00 | 0.00 | 0.00 | 79 | 1012.0 |
| 20260506182331 | 12 | 0 | 11.3 | 24.1 | 0.00 | 0.00 | 0.00 | 79 | 1011.9 |
| 20260506181830 | 12 | 0 | 6.4 | 22.5 | 0.00 | 0.00 | 0.00 | 79 | 1011.8 |
| 20260506181330 | 12 | 0 | 16.1 | 22.5 | 0.00 | 0.00 | 0.00 | 78 | 1011.7 |
| 20260506180329 | 12 | 0 | 11.3 | 24.1 | 0.00 | 0.00 | 0.00 | 79 | 1011.6 |
| 20260506175827 | 12 | 0 | 12.9 | 24.1 | 0.00 | 0.00 | 0.00 | 78 | 1011.6 |
| 20260506175328 | 12 | 0 | 12.9 | 25.7 | 0.00 | 0.00 | 0.00 | 79 | 1011.5 |
| 20260506174827 | 12 | 0 | 16.1 | 25.7 | 0.00 | 0.00 | 0.00 | 78 | 1011.4 |
| 20260506174329 | 12 | 0 | 14.5 | 24.1 | 0.00 | 0.00 | 0.00 | 78 | 1011.4 |
| 20260506172323 | 12 | 0 | 16.1 | 24.1 | 0.00 | 0.00 | 0.00 | 77 | 1011.2 |
| 20260506171821 | 12 | 4 | 17.7 | 24.1 | 0.00 | 0.00 | 0.00 | 77 | 1011.2 |
| 20260506171322 | 12 | 0 | 16.1 | 24.1 | 0.00 | 0.00 | 0.00 | 77 | 1011.2 |
| 20260506170821 | 12 | 0 | 14.5 | 22.5 | 0.00 | 0.00 | 0.00 | 77 | 1011.2 |
| 20260506170324 | 12 | 0 | 12.9 | 24.1 | 0.00 | 0.00 | 0.00 | 77 | 1011.1 |
| 20260506165822 | 12 | 0 | 16.1 | 24.1 | 0.00 | 0.00 | 0.00 | 76 | 1011.0 |
| 20260506165321 | 13 | 0 | 14.5 | 24.1 | 0.00 | 0.00 | 0.00 | 74 | 1010.9 |
| 20260506164818 | 13 | 0 | 16.1 | 24.1 | 0.00 | 0.00 | 0.00 | 75 | 1011.0 |
| 20260506164319 | 13 | 0 | 16.1 | 25.7 | 0.00 | 0.00 | 0.00 | 74 | 1011.1 |
| 20260506163317 | 13 | 0 | 17.7 | 25.7 | 0.00 | 0.00 | 0.00 | 72 | 1011.0 |
| 20260506162819 | 13 | 0 | 16.1 | 27.4 | 0.00 | 0.00 | 0.00 | 74 | 1011.0 |
| 20260506161808 | 13 | 0 | 11.3 | 27.4 | 0.00 | 0.00 | 0.00 | 73 | 1010.9 |
| 20260506161309 | 13 | 0 | 16.1 | 27.4 | 0.00 | 0.00 | 0.00 | 75 | 1010.9 |
| 20260506160811 | 13 | 0 | 14.5 | 25.7 | 0.00 | 0.00 | 0.00 | 74 | 1010.9 |
| 20260506160310 | 13 | 0 | 16.1 | 27.4 | 0.00 | 0.00 | 0.00 | 74 | 1010.9 |
| 20260506155811 | 13 | 0 | 19.3 | 27.4 | 0.00 | 0.00 | 0.00 | 72 | 1010.8 |
| 20260506155320 | 13 | 0 | 16.1 | 25.7 | 0.00 | 0.00 | 0.00 | 71 | 1010.8 |
| 20260506154810 | 13 | 0 | 16.1 | 27.4 | 0.00 | 0.00 | 0.00 | 74 | 1010.8 |
| 20260506154310 | 13 | 0 | 17.7 | 27.4 | 0.00 | 0.00 | 0.00 | 73 | 1010.8 |
| 20260506153808 | 13 | 0 | 17.7 | 25.7 | 0.00 | 0.00 | 0.00 | 72 | 1010.8 |
| 20260506153308 | 13 | 0 | 16.1 | 27.4 | 0.00 | 0.00 | 0.00 | 73 | 1010.7 |
| 20260506152806 | 13 | 0 | 17.7 | 27.4 | 0.00 | 0.00 | 0.00 | 73 | 1010.8 |
| 20260506152317 | 13 | 0 | 14.5 | 24.1 | 0.00 | 0.00 | 0.00 | 73 | 1010.9 |
| 20260506151807 | 13 | 0 | 12.9 | 24.1 | 0.00 | 0.00 | 0.00 | 74 | 1010.7 |
| 20260506151307 | 13 | 0 | 11.3 | 27.4 | 0.00 | 0.00 | 0.00 | 73 | 1010.8 |
| 20260506150806 | 13 | 0 | 17.7 | 29.0 | 0.00 | 0.00 | 0.00 | 73 | 1010.9 |
| 20260506145803 | 13 | 0 | 16.1 | 30.6 | 0.00 | 0.00 | 0.00 | 75 | 1010.8 |
| 20260506145305 | 13 | 0 | 16.1 | 27.4 | 0.00 | 0.00 | 0.00 | 75 | 1010.8 |
| 20260506144302 | 13 | 0 | 20.9 | 30.6 | 0.00 | 0.00 | 0.00 | 75 | 1010.8 |
| 20260506143802 | 13 | 0 | 19.3 | 29.0 | 0.00 | 0.00 | 0.00 | 76 | 1010.7 |
| 20260506143302 | 13 | 0 | 17.7 | 33.8 | 0.00 | 0.00 | 0.00 | 75 | 1010.6 |
| 20260506142802 | 13 | 0 | 19.3 | 33.8 | 0.00 | 0.00 | 0.00 | 75 | 1010.6 |
| 20260506142305 | 13 | 0 | 20.9 | 29.0 | 0.00 | 0.00 | 0.00 | 75 | 1010.7 |
| 20260506141803 | 13 | 0 | 19.3 | 30.6 | 0.00 | 0.00 | 0.00 | 75 | 1010.7 |
| 20260506141302 | 13 | 0 | 16.1 | 30.6 | 0.00 | 0.00 | 0.00 | 75 | 1010.6 |
| 20260506140802 | 13 | 0 | 14.5 | 25.7 | 0.00 | 0.00 | 0.00 | 75 | 1010.6 |
| 20260506140302 | 13 | 0 | 14.5 | 25.7 | 0.00 | 0.00 | 0.00 | 75 | 1010.6 |
| 20260506135802 | 13 | 0 | 14.5 | 25.7 | 0.00 | 0.00 | 0.00 | 75 | 1010.6 |
| 20260506135306 | 13 | 0 | 14.5 | 25.7 | 0.00 | 0.00 | 0.00 | 75 | 1010.7 |
| 20260506134304 | 13 | 0 | 14.5 | 22.5 | 0.00 | 0.00 | 0.00 | 75 | 1010.7 |
| 20260506133804 | 13 | 0 | 16.1 | 24.1 | 0.00 | 0.00 | 0.00 | 75 | 1010.6 |